Starlink 36204

operational
NORAD ID: 68550 Int'l Des: 2026-070 Owner: SPXS Country: US Constellation: starlink
LEOCIRCULAR

About Starlink 36204

Description loading...

Live Position

Loading 3D Globe...

Upcoming Passes

Altitude History

Altitude vs Time

uPlot chart will show altitude changes over time

Two-Line Element Set

1 68550C 26070H 26093.92409722 -.00233020 00000+0 -28649-3 0 932
2 68550 53.1618 259.4727 0007821 287.8051 65.2197 16.07244618 15
Epoch: Apr 3, 2026 • Age: 29 hours

Current Status

Altitude 264.3 km
Velocity 7.75 km/s
Sub-Earth Point 44.16°N, 129.11°E
Launch Date Apr 2, 2026
Age 1 days
Type internet

Technical Details

Classification Payload
Mass 575.00 kg
Dry Mass 530.00 kg
Total Mass 575.00 kg
Length 0.30 m
Diameter 4.10 m
Span 29.00 m
Shape Box + pan
Manufacturer SPXS
Bus Type Starlink V2MO
Phase Status In Orbit
Owner/State SPXS/US

Large Constellations

Loading constellations...